• In Hungary
  • List of Countries
  • For 7 days
  • Water Temperature
  • Satellite Maps
  • Weather Map
  • News
  • Weather Widgets
  • user-avatar
    Login

    Hourly Weather Glinki

    Today, 20 June, Wednesday

    Time Temperature Precipitation Wind Pressure Humidity
    00:00 +18°C° 0 mm 4 mps 742 mmHg 88%
    01:00 +18°C° 0 mm 4 mps 742 mmHg 89%
    02:00 +18°C° 0 mm 4 mps 742 mmHg 89%
    03:00 +17°C° 0 mm 3 mps 741 mmHg 92%
    04:00 +18°C° 0 mm 4 mps 741 mmHg 91%
    05:00 +18°C° 0 mm 4 mps 741 mmHg 89%
    06:00 +17°C° 0 mm 5 mps 741 mmHg 88%
    07:00 +19°C° 0 mm 6 mps 742 mmHg 82%
    08:00 +20°C° 0 mm 6 mps 742 mmHg 77%
    09:00 +20°C° 0 mm 6 mps 742 mmHg 71%
    10:00 +21°C° 0 mm 6 mps 742 mmHg 67%
    11:00 +21°C° 0 mm 7 mps 742 mmHg 62%
    12:00 +22°C° 0 mm 7 mps 742 mmHg 58%
    13:00 +22°C° 0 mm 7 mps 742 mmHg 56%
    14:00 +22°C° 0 mm 7 mps 742 mmHg 55%
    15:00 +22°C° 0 mm 7 mps 742 mmHg 54%
    16:00 +22°C° 0 mm 6 mps 742 mmHg 58%
    17:00 +22°C° 0 mm 5 mps 742 mmHg 62%
    18:00 +22°C° 0 mm 4 mps 742 mmHg 67%
    19:00 +20°C° 0 mm 4 mps 742 mmHg 69%
    20:00 +19°C° 0 mm 4 mps 743 mmHg 72%
    21:00 +17°C° 0 mm 4 mps 743 mmHg 74%
    22:00 +17°C° 0 mm 4 mps 743 mmHg 76%
    23:00 +15°C° 0 mm 4 mps 743 mmHg 77%

    Tomorrow, 21 June, Thursday

    Time Temperature Precipitation Wind Pressure Humidity
    00:00 +14°C° 0 mm 4 mps 743 mmHg 79%
    01:00 +13°C° 0 mm 3 mps 743 mmHg 81%
    02:00 +13°C° 0 mm 3 mps 744 mmHg 84%
    03:00 +12°C° 0 mm 3 mps 744 mmHg 87%
    04:00 +12°C° 0 mm 3 mps 744 mmHg 85%
    05:00 +13°C° 0 mm 4 mps 744 mmHg 82%
    06:00 +13°C° 0 mm 4 mps 744 mmHg 80%
    07:00 +15°C° 0 mm 4 mps 744 mmHg 74%
    08:00 +17°C° 0 mm 5 mps 744 mmHg 67%
    09:00 +19°C° 0 mm 5 mps 745 mmHg 61%
    10:00 +20°C° 0 mm 6 mps 744 mmHg 60%
    11:00 +21°C° 0 mm 6 mps 744 mmHg 59%
    12:00 +22°C° 0 mm 6 mps 744 mmHg 59%
    13:00 +23°C° 0 mm 6 mps 744 mmHg 59%
    14:00 +23°C° 0 mm 6 mps 744 mmHg 59%
    15:00 +24°C° 0 mm 6 mps 744 mmHg 60%
    16:00 +25°C° 0 mm 5 mps 743 mmHg 63%
    17:00 +25°C° 0 mm 5 mps 743 mmHg 66%
    18:00 +25°C° 0 mm 4 mps 743 mmHg 69%
    19:00 +22°C° 0 mm 4 mps 743 mmHg 74%
    20:00 +20°C° 0 mm 3 mps 743 mmHg 79%
    21:00 +19°C° 0 mm 3 mps 743 mmHg 84%
    22:00 +18°C° 0 mm 3 mps 744 mmHg 86%
    23:00 +17°C° 0 mm 3 mps 744 mmHg 88%

    Day after tomorrow, 22 June, Friday

    Time Temperature Precipitation Wind Pressure Humidity
    00:00 +17°C° 0 mm 3 mps 744 mmHg 90%
    01:00 +16°C° 0 mm 3 mps 744 mmHg 90%
    02:00 +16°C° 0 mm 2 mps 744 mmHg 91%
    03:00 +16°C° 0 mm 2 mps 744 mmHg 92%
    04:00 +16°C° 0 mm 2 mps 744 mmHg 91%
    05:00 +17°C° 0 mm 2 mps 744 mmHg 89%
    06:00 +18°C° 0 mm 2 mps 744 mmHg 88%
    07:00 +19°C° 0 mm 3 mps 743 mmHg 83%
    08:00 +21°C° 0 mm 4 mps 743 mmHg 78%
    09:00 +22°C° 0 mm 4 mps 743 mmHg 73%
    10:00 +23°C° 0 mm 5 mps 743 mmHg 70%
    11:00 +25°C° 0 mm 5 mps 743 mmHg 67%
    12:00 +26°C° 0 mm 6 mps 743 mmHg 64%
    13:00 +27°C° 0 mm 6 mps 742 mmHg 64%
    14:00 +27°C° 0 mm 6 mps 742 mmHg 63%
    15:00 +28°C° 0 mm 6 mps 742 mmHg 63%
    16:00 +27°C° 0 mm 5 mps 741 mmHg 66%
    17:00 +27°C° 0 mm 5 mps 741 mmHg 69%
    18:00 +27°C° 0 mm 4 mps 741 mmHg 72%
    19:00 +26°C° 0 mm 4 mps 741 mmHg 77%
    20:00 +23°C° 0 mm 4 mps 741 mmHg 81%
    21:00 +22°C° 0 mm 4 mps 741 mmHg 86%
    22:00 +21°C° 0 mm 4 mps 741 mmHg 88%
    23:00 +20°C° 0 mm 4 mps 741 mmHg 91%

    23 June, Saturday

    Time Temperature Precipitation Wind Pressure Humidity
    00:00 +20°C° 0 mm 3 mps 741 mmHg 93%
    01:00 +19°C° 0 mm 3 mps 741 mmHg 94%
    02:00 +19°C° 0 mm 3 mps 741 mmHg 94%
    03:00 +18°C° 0 mm 3 mps 741 mmHg 95%
    04:00 +19°C° 0 mm 3 mps 741 mmHg 93%
    05:00 +19°C° 0 mm 3 mps 741 mmHg 92%
    06:00 +19°C° 0 mm 3 mps 741 mmHg 90%
    07:00 +21°C° 0.1 mm 3 mps 741 mmHg 86%
    08:00 +22°C° 0.1 mm 3 mps 741 mmHg 83%
    09:00 +23°C° 0.1 mm 4 mps 741 mmHg 79%
    10:00 +25°C° 0.3 mm 4 mps 741 mmHg 74%
    11:00 +26°C° 0.3 mm 5 mps 741 mmHg 68%
    12:00 +28°C° 0.3 mm 6 mps 740 mmHg 63%
    13:00 +28°C° 0.4 mm 6 mps 740 mmHg 62%
    14:00 +28°C° 0.4 mm 6 mps 740 mmHg 61%
    15:00 +29°C° 0.4 mm 6 mps 739 mmHg 60%
    16:00 +28°C° 0.7 mm 6 mps 739 mmHg 66%
    17:00 +27°C° 0.7 mm 5 mps 739 mmHg 72%
    18:00 +26°C° 0.7 mm 4 mps 739 mmHg 78%
    19:00 +23°C° 0.8 mm 4 mps 739 mmHg 82%
    20:00 +22°C° 0.8 mm 4 mps 739 mmHg 86%
    21:00 +20°C° 0.8 mm 3 mps 739 mmHg 89%
    22:00 +19°C° 1.3 mm 3 mps 739 mmHg 91%
    23:00 +18°C° 1.3 mm 3 mps 739 mmHg 93%

    24 June, Sunday

    Time Temperature Precipitation Wind Pressure Humidity
    00:00 +18°C° 1.3 mm 3 mps 739 mmHg 95%
    01:00 +17°C° 1.1 mm 3 mps 739 mmHg 95%
    02:00 +15°C° 1.1 mm 4 mps 739 mmHg 95%
    03:00 +14°C° 1.1 mm 5 mps 739 mmHg 95%
    04:00 +13°C° 0.3 mm 5 mps 740 mmHg 94%
    05:00 +12°C° 0.3 mm 5 mps 740 mmHg 94%
    06:00 +10°C° 0.3 mm 6 mps 741 mmHg 93%
    07:00 +11°C° 0 mm 6 mps 742 mmHg 89%
    08:00 +13°C° 0 mm 6 mps 742 mmHg 84%
    09:00 +14°C° 0 mm 6 mps 743 mmHg 80%
    10:00 +16°C° 0 mm 5 mps 743 mmHg 74%
    11:00 +17°C° 0 mm 5 mps 744 mmHg 68%
    12:00 +20°C° 0 mm 5 mps 744 mmHg 63%
    13:00 +20°C° 0 mm 4 mps 745 mmHg 61%
    14:00 +21°C° 0 mm 4 mps 745 mmHg 59%
    15:00 +22°C° 0 mm 4 mps 745 mmHg 58%
    16:00 +22°C° 0 mm 3 mps 745 mmHg 59%
    17:00 +21°C° 0 mm 3 mps 745 mmHg 61%
    18:00 +21°C° 0 mm 2 mps 746 mmHg 63%
    19:00 +20°C° 0 mm 2 mps 746 mmHg 68%
    20:00 +18°C° 0 mm 2 mps 746 mmHg 73%
    21:00 +16°C° 0 mm 2 mps 746 mmHg 78%
    22:00 +16°C° 0 mm 2 mps 746 mmHg 81%
    23:00 +15°C° 0 mm 2 mps 747 mmHg 84%

    25 June, Monday

    Time Temperature Precipitation Wind Pressure Humidity
    00:00 +14°C° 0 mm 2 mps 747 mmHg 86%
    01:00 +14°C° 0 mm 2 mps 747 mmHg 88%
    02:00 +13°C° 0 mm 2 mps 747 mmHg 90%
    03:00 +13°C° 0 mm 2 mps 747 mmHg 91%
    04:00 +13°C° 0 mm 2 mps 747 mmHg 90%
    05:00 +14°C° 0 mm 2 mps 747 mmHg 88%
    06:00 +14°C° 0 mm 2 mps 748 mmHg 86%
    07:00 +16°C° 0 mm 2 mps 748 mmHg 81%
    08:00 +18°C° 0 mm 2 mps 748 mmHg 76%
    09:00 +19°C° 0 mm 3 mps 748 mmHg 70%
    10:00 +20°C° 0 mm 3 mps 748 mmHg 67%
    11:00 +21°C° 0 mm 3 mps 748 mmHg 63%
    12:00 +22°C° 0 mm 4 mps 748 mmHg 59%
    13:00 +22°C° 0 mm 4 mps 748 mmHg 58%
    14:00 +22°C° 0 mm 4 mps 747 mmHg 57%
    15:00 +22°C° 0 mm 4 mps 747 mmHg 56%
    16:00 +22°C° 0 mm 4 mps 747 mmHg 59%
    17:00 +22°C° 0 mm 3 mps 747 mmHg 62%
    18:00 +22°C° 0 mm 3 mps 747 mmHg 65%
    19:00 +20°C° 0 mm 3 mps 747 mmHg 70%
    20:00 +18°C° 0 mm 2 mps 747 mmHg 74%
    21:00 +16°C° 0 mm 2 mps 748 mmHg 79%
    22:00 +16°C° 0 mm 2 mps 748 mmHg 82%
    23:00 +15°C° 0 mm 2 mps 748 mmHg 84%
    Show more